Flag for Poland Weather past 2 weeks in Zabrze, Poland

Now
46 °F

Partly cloudy.


Feels Like: 41 °F
Forecast: 38 / 49 °F
Wind: 10 mph from South

Location: Katowice Airport

Current Time: Mar 30, 2015 at 1:24:03 AM

Latest Report: Mar 30, 2015 at 1:00 AM


Visibility: 5 mi

Pressure: 29.39 "Hg

Humidity: 93%

Dew point: 45 °F

Location of ZabrzeLocation

Historic Weather in Zabrze — Graph

°F

Zabrze temperature yesterday

Maximum temperature yesterday: 50 °F (at 1:30 PM)
Minimum temperature yesterday: 28 °F (at 5:30 AM)
Average temperature yesterday: 42 °F

Past Weeks' High & Low Weather Summary

 TemperatureHumidityPressure
High66 °F (Mar 25, 2:00 PM)100% (Mar 14, 11:00 PM)30.57 "Hg (Mar 14, 11:00 PM)
Low19 °F (Mar 23, 5:00 AM)25% (Mar 23, 1:30 PM)29.45 "Hg (Mar 29, 11:30 PM)
Average42 °F68%30.11 "Hg
* Reported Mar 14 11:00 PM — Midnight between Mar 29 and Mar 30, Zabrze, Weather by CustomWeather, © 2015

Note: Actual official high and low records may vary slightly from our data, if they occured in-between our weather recording intervals... More about our weather records

Advertising

Zabrze weather history for previous 24 hours

 ConditionsComfort  
Time TempWeatherWind HumidityBarometerVisibility
12:00 AM
Mon, Mar 30
46 °FLight rain. Fog.9 mph93%29.45 "Hg3 mi
11:30 PM
Sun, Mar 29
46 °FLight rain. Fog.10 mph93%29.45 "Hg3 mi
11:00 PM46 °FLight rain. Fog.9 mph93%29.47 "Hg3 mi
10:30 PM46 °FLight rain. Partly cloudy.9 mph87%29.50 "Hg4 mi
10:00 PM46 °FLight rain. Passing clouds.9 mph87%29.50 "Hg4 mi
9:30 PM46 °FLight rain. Passing clouds.12 mph87%29.53 "Hg4 mi
9:00 PM46 °FLight rain. Passing clouds.9 mph87%29.53 "Hg4 mi
8:30 PM46 °FPassing clouds.9 mph82%29.56 "HgN/A
8:00 PM46 °FPartly sunny.12 mph82%29.56 "HgN/A
7:30 PM48 °FBroken clouds.9 mph76%29.56 "HgN/A
7:00 PM48 °FPartly sunny.8 mph76%29.59 "HgN/A
6:30 PM48 °FPartly sunny.8 mph76%29.59 "HgN/A
6:00 PM48 °FScattered clouds.9 mph76%29.59 "HgN/A
5:30 PM48 °FBroken clouds.10 mph71%29.59 "HgN/A
5:00 PM48 °FPartly sunny.10 mph71%29.62 "HgN/A
4:30 PM48 °FPartly sunny.10 mph71%29.62 "HgN/A
4:00 PM50 °FLight rain. Partly sunny.13 mph67%29.62 "HgN/A
3:30 PM50 °FScattered clouds.12 mph67%29.65 "HgN/A
3:00 PM48 °FScattered clouds.14 mph71%29.65 "HgN/A
2:30 PM48 °FPartly sunny.15 mph66%29.68 "HgN/A
2:00 PM50 °FPartly sunny.12 mph62%29.68 "HgN/A
1:30 PM50 °FScattered clouds.13 mph58%29.68 "HgN/A
1:00 PM48 °FSunny.13 mph62%29.71 "Hg10 mi
12:30 PM48 °FPassing clouds.12 mph58%29.71 "HgN/A
12:00 PM48 °FPassing clouds.12 mph58%29.71 "HgN/A
11:30 AM46 °FPassing clouds.13 mph57%29.74 "HgN/A
11:00 AM45 °FPassing clouds.9 mph61%29.77 "HgN/A
10:30 AM43 °FClear.9 mph71%29.77 "Hg5 mi
10:00 AM43 °FClear.8 mph71%29.77 "Hg4 mi
9:30 AM41 °FPassing clouds.5 mph81%29.80 "Hg4 mi
9:00 AM39 °FFog.6 mph100%29.83 "Hg2 mi
8:30 AM37 °FFog.5 mph100%29.83 "Hg1 mi
8:00 AM36 °FFog.2 mph100%29.83 "Hg0 mi
7:30 AM34 °FFog.3 mph100%29.86 "Hg0 mi
7:00 AM32 °FIce fog.2 mph93%29.86 "Hg0 mi
6:30 AM30 °FIce fog.3 mph100%29.86 "Hg0 mi
6:00 AM30 °FIce fog.5 mph100%29.86 "Hg1 mi
5:30 AM28 °FIce fog.1 mph100%29.86 "Hg0 mi
5:00 AM30 °FChilly.2 mph93%29.89 "Hg1 mi
4:30 AM32 °FChilly.2 mph100%29.89 "Hg1 mi
4:00 AM34 °FChilly.5 mph100%29.89 "Hg1 mi
3:30 AM34 °FChilly.3 mph100%29.92 "Hg1 mi
3:00 AM36 °FChilly.3 mph93%29.92 "Hg1 mi
1:30 AM36 °FFog.3 mph93%29.92 "Hg1 mi
1:00 AM36 °FFog.5 mph93%29.95 "Hg2 mi
Weather by CustomWeather, © 2015

See weather overviewHow to use our weather pages